User: anonymous   Login
Location: Unspecified
(0.0000°N, 0.0000°E)
Time: 14:37:57
(UTC+02:00)
Language:

Cosmos 1892 Rocket - Orbit

View from above orbital plane
View from above orbital plane
View from above satellite
View from above satellite

Ground track
Ground track

The orbit data is extracted from the following two-line orbital elements,

1 18422U 87088B   15108.84510990  .00000621  00000-0  73882-4 0  9990
2 18422 082.5140 197.3444 0020342 158.0204 345.4833 14.82684763484692
Epoch (UTC): 18 April 2015 20:16:57
Eccentricity: 0.0020342
inclination: 82.5140°
perigee height: 606 km
apogee height: 635 km
right ascension of ascending node: 197.3444°
argument of perigee: 158.0204°
revolutions per day: 14.82684763
mean anomaly at epoch: 345.4833°
orbit number at epoch: 48469

The dashed part of the orbit path shows where the satellite is in the earth's shadow,  

DLR